Location: Newark
(50.0306°N, 2.3272°E)
Time: 12:12:08
(UTC+00:00)

Vanguard 1 - Pass Details

Date: 12 December 2019
Orbit: 651 x 3832 km, 34.2° (Epoch: 17 January)

Event Time Altitude Azimuth Distance (km) Brightness Sun altitude
Exits shadow 01:34:26 22° 155° (SSE) 5,870 13.8 -55.5°
Maximum altitude 01:39:32 24° 138° (SE) 5,765 13.8 -54.9°
Drops below altitude 10° 01:54:46 10° 95° (E) 6,515 14.5 -52.9°
Sets 02:00:43 0° 83° (E) 7,179 15.0 -52.1°
